Weather History for Salina, KS

Change the Weather History Date:

Sunday, November 7, 2010

  Actual Average Record
Temperature  
Mean Temperature 60 °F 48 °F  
Max Temperature 73 °F 60 °F 81 °F (1931)
Min Temperature 46 °F 37 °F 15 °F (1991)
Degree Days  
Heating Degree Days 5 17  
Month to date heating degree days 113 107  
Since 1 July heating degree days 310 425  
Cooling Degree Days 0 0  
Month to date cooling degree days 0 0  
Year to date cooling degree days 1872 1646  
Growing Degree Days 9 (Base 50)    
Moisture  
Dew Point 31 °F    
Average Humidity 40    
Maximum Humidity 60    
Minimum Humidity 20    
Precipitation  
Precipitation 0.00 in 0.05 in 0.82 in (2011)
Month to date precipitation 0.00 0.35  
Year to date precipitation 24.42 29.66  
Sea Level Pressure  
Sea Level Pressure 30.02 in    
Wind  
Wind Speed 18 mph (South)    
Max Wind Speed 29 mph    
Max Gust Speed 40 mph    
Visibility 10 miles    
Events      
T = Trace of Precipitation, MM = Missing Value Source: NWS Daily Summary

Daily Weather History Graph

Daily Weather History Graph

Search for Another Location

Airport:

Trip Planner

Search our weather history database for the weather conditions in past years. The results will help you decide how hot, cold, wet, or windy it might be!

Date:

Astronomy

Nov. 07, 2010 Rise Set
Actual Time 7:04 AM CST 5:23 PM CST
Civil Twilight 6:36 AM CST 5:51 PM CST
Nautical Twilight 6:04 AM CST 6:23 PM CST
Astronomical Twilight 5:33 AM CST 6:54 PM CST
Moon 8:49 AM CST (11/7) 6:25 PM CST (11/7)
Length of Visible Light 11h 15m
Length of Day
10h 19m
Waxing Crescent, 3% of the Moon is Illuminated
Nov 7
Waxing Crescent
Nov 13
First Quarter
Nov 21
Full
Nov 28
Last Quarter
Dec 5
New

Hourly Weather History & Observations

Time (CST) Temp. Windchill Dew Point Humidity Pressure Visibility Wind Dir Wind Speed Gust Speed Precip Events Conditions
12:53 AM 54.0 °F - 30.9 °F 41% 30.13 in 10.0 mi South 13.8 mph - N/A   Clear
1:53 AM 51.1 °F - 30.9 °F 46% 30.13 in 10.0 mi South 9.2 mph - N/A   Clear
1:53 AM 50.0 °F - 30.9 °F 48% 30.13 in 10.0 mi South 10.4 mph - N/A   Clear
2:53 AM 48.9 °F - 32.0 °F 52% 30.13 in 10.0 mi South 12.7 mph - N/A   Clear
3:53 AM 46.9 °F - 32.0 °F 56% 30.12 in 10.0 mi South 11.5 mph - N/A   Clear
4:53 AM 46.9 °F - 33.1 °F 59% 30.12 in 10.0 mi South 12.7 mph 23.0 mph N/A   Clear
5:53 AM 46.0 °F 39.3 °F 33.1 °F 61% 30.11 in 10.0 mi South 16.1 mph 23.0 mph N/A   Clear
6:53 AM 46.0 °F 39.0 °F 32.0 °F 58% 30.11 in 10.0 mi South 17.3 mph 24.2 mph N/A   Clear
7:53 AM 46.9 °F - 33.1 °F 59% 30.12 in 10.0 mi South 18.4 mph 25.3 mph N/A   Clear
8:53 AM 51.1 °F - 34.0 °F 52% 30.12 in 10.0 mi South 15.0 mph 24.2 mph N/A   Clear
9:53 AM 57.0 °F - 34.0 °F 42% 30.11 in 10.0 mi South 15.0 mph 24.2 mph N/A   Clear
10:53 AM 62.1 °F - 34.0 °F 35% 30.09 in 10.0 mi South 21.9 mph 28.8 mph N/A   Clear
11:53 AM 66.9 °F - 33.1 °F 28% 30.04 in 10.0 mi South 19.6 mph 26.5 mph N/A   Clear
12:53 PM 71.1 °F - 32.0 °F 24% 30.00 in 10.0 mi South 19.6 mph 29.9 mph N/A   Clear
1:53 PM 72.0 °F - 30.0 °F 21% 29.96 in 10.0 mi South 24.2 mph 32.2 mph N/A   Clear
2:53 PM 72.0 °F - 28.9 °F 20% 29.93 in 10.0 mi South 26.5 mph 35.7 mph N/A   Clear
3:53 PM 72.0 °F - 28.0 °F 20% 29.91 in 10.0 mi South 23.0 mph 35.7 mph N/A   Clear
4:53 PM 70.0 °F - 27.0 °F 20% 29.88 in 10.0 mi South 24.2 mph 35.7 mph N/A   Clear
5:53 PM 66.9 °F - 26.1 °F 21% 29.89 in 10.0 mi South 21.9 mph - N/A   Clear
6:53 PM 64.9 °F - 27.0 °F 24% 29.91 in 10.0 mi South 18.4 mph 29.9 mph N/A   Clear
7:53 PM 64.0 °F - 28.9 °F 27% 29.91 in 10.0 mi South 21.9 mph 38.0 mph N/A   Clear
8:53 PM 63.0 °F - 30.9 °F 30% 29.89 in 10.0 mi South 21.9 mph 36.8 mph N/A   Clear
9:53 PM 61.0 °F - 32.0 °F 34% 29.87 in 10.0 mi South 21.9 mph 33.4 mph N/A   Clear
10:53 PM 60.1 °F - 32.0 °F 35% 29.86 in 10.0 mi South 19.6 mph 32.2 mph N/A   Clear